Date,TemperatureHighF,TemperatureAvgF,TemperatureLowF,DewpointHighF,DewpointAvgF,DewpointLowF,HumidityHigh,HumidityAvg,HumidityLow,PressureMaxIn,PressureMinIn,WindSpeedMaxMPH,WindSpeedAvgMPH,GustSpeedMaxMPH,PrecipitationSumIn
2013-3-1,29.8,26.6,24.5,25.6,21.7,18.9,85,82,77,30.15,29.99,9,6,14,0.00
2013-3-2,26.3,24.6,22.9,21.1,19.9,17.9,88,82,77,30.13,30.09,5,2,9,0.00
2013-3-3,30.8,23.1,16.3,18.0,15.5,13.0,90,74,50,30.11,30.04,6,2,11,0.00
2013-3-4,38.7,24.0,13.0,19.7,15.4,10.9,94,72,42,30.21,30.11,4,1,8,0.01
2013-3-5,35.1,27.5,19.8,26.2,22.0,17.7,92,80,64,30.18,29.87,11,5,17,0.00
2013-3-6,39.9,32.9,26.9,29.9,27.0,22.7,88,79,65,30.25,29.88,9,4,16,0.00
2013-3-7,36.4,32.6,24.6,30.7,26.4,19.7,91,78,63,30.43,30.24,6,2,10,0.00
2013-3-8,45.4,31.8,20.1,27.8,23.4,17.6,91,73,48,30.54,30.43,4,1,5,0.00
2013-3-9,42.1,33.9,23.0,32.0,28.0,21.8,96,80,63,30.46,30.09,8,3,13,0.00
2013-3-10,63.6,48.8,33.0,46.7,37.7,30.8,92,68,48,30.08,29.82,6,2,18,0.00
2013-3-11,55.9,49.6,37.2,48.4,44.0,32.4,95,81,58,29.84,29.48,9,5,18,0.41
2013-3-12,37.2,34.1,28.9,33.0,29.5,25.3,90,83,72,29.96,29.71,5,3,13,0.00
2013-3-13,32.3,29.6,26.7,27.8,20.9,13.9,91,70,57,30.23,29.90,5,3,10,0.00
2013-3-14,42.3,30.9,20.7,23.0,18.6,13.2,84,61,39,30.31,30.12,6,2,10,0.01
2013-3-15,40.2,35.0,30.0,34.2,29.5,20.9,96,81,60,30.13,29.88,4,2,6,0.08
2013-3-16,33.9,29.5,27.1,33.1,26.5,21.2,97,89,72,30.08,29.79,7,4,13,0.01
2013-3-17,29.3,25.0,18.4,24.4,17.9,12.1,88,75,55,30.31,30.08,9,3,17,0.00
2013-3-27,44.0,39.3,36.2,27.5,26.4,24.8,63,60,50,30.24,30.18,5,3,8,0.00
2013-3-28,52.1,40.5,30.0,28.8,25.7,23.3,80,58,35,30.29,30.24,7,2,12,0.00
2013-3-29,53.0,40.6,29.3,26.9,22.4,19.3,75,51,28,30.32,30.22,5,1,9,0.00
2013-3-30,56.2,42.0,25.1,30.0,23.6,17.0,86,53,23,30.25,29.96,6,2,10,0.00
2013-3-31,59.4,45.4,33.3,43.9,33.9,28.7,93,67,33,29.96,29.64,5,2,10,0.04